Regional Weather Roundup
Issued by NWS Portland, ME

Home | Current Version | Previous Version | Text Only | Print | Product List | Glossary On
Versions: 1 2 3 4 5 6 7 8 9 10 11 12 13 14 15 16 17 18 19 20 21 22 23 24 25 26 27 28 29 30 31 32 33 34 35 36 37 38 39 40 41 42 43 44 45 46 47 48 49 50
000
ASUS41 KGYX 302210
RWRGYX
WEATHER ROUNDUP FOR MAINE AND NEW HAMPSHIRE
NATIONAL WEATHER SERVICE GRAY ME
600 PM EDT MON MAY 30 2016

MEZ002-005-006-010-012-015-018-020-021-024-026-027-029-302300-
MAINE

CITY           SKY/WX    TMP DP  RH WIND       PRES   REMARKS
PORTLAND       PTSUNNY   66  59  78 S10       29.85F
SANFORD        CLOUDY    73  64  73 S6        29.86F
BAR HARBOR     PTSUNNY   59  54  83 SW16G22   29.86S
WISCASSET      PTSUNNY   61  55  81 VRB5      29.87F
ROCKLAND       PTSUNNY   58  54  86 S6        29.87F
FRYEBURG       CLOUDY    80  63  55 S12G17    29.81F
LEWISTONAUBURN CLOUDY   N/A N/A N/A S9        29.82F
AUGUSTA        CLOUDY    73  61  65 S9G18     29.82F
WATERVILLE     CLOUDY    75  63  66 VRB6      29.79F
BANGOR         MOSUNNY   73  60  63 S14       29.81F
GREENVILLE       N/A     71  60  68 S6        29.78F
MILLINOCKET    SUNNY     72  61  68 S8        29.77F
HOULTON        SUNNY     71  60  68 S10G20    29.74F
PRESQUE ISLE   SUNNY     75  61  61 S12G21    29.71F
FRENCHVILLE    PTSUNNY   75  62  64 S7        29.68F
CARIBOU        SUNNY     75  61  61 S13       29.69F
$$

NHZ002-005-008-009-011-012-014-302300-
NEW HAMPSHIRE

CITY           SKY/WX    TMP DP  RH WIND       PRES   REMARKS
PORTSMOUTH     PTSUNNY   74  66  75 SW7       29.85F
ROCHESTER      NOT AVBL
NASHUA         MOSUNNY   78  69  73 VRB5      29.88S
MANCHESTER     CLOUDY    79  66  64 S9        29.85F
CONCORD        MOSUNNY   80  67  64 S10       29.85F
LACONIA        MOSUNNY   79  67  66 S12       29.85F
PLYMOUTH       FAIR      82  62  50 S5        29.81F
BERLIN         SUNNY     83  58  42 MISG      29.80F
WHITEFIELD     PTSUNNY   82  58  43 SW10      29.80F HAZE
JAFFREY        PTSUNNY   76  65  68 S10G17    29.91S
KEENE          CLOUDY   N/A N/A N/A SW12      29.88S
LEBANON        SUNNY     83  65  54 S10       29.82F
MT WASHINGTON  PTSUNNY   55  52  88 W37         N/A
$$

VTZ005-007-008-302300-
VERMONT

CITY           SKY/WX    TMP DP  RH WIND       PRES   REMARKS
ST JOHNSBURY     N/A     76  62  62 MISG      29.78S
MONTPELIER     FAIR      80  60  50 SW8G18    29.86F
BURLINGTON     FAIR      86  59  39 W8        29.78S
$$

MAZ007-012-024-CTZ003-RIZ002-NYZ038-NYZ072-302300-
SOUTHERN NEW ENGLAND AND NY

CITY           SKY/WX    TMP DP  RH WIND       PRES   REMARKS
BOSTON         CLOUDY    71  68  90 SW13      29.89S
WORCESTER      CLOUDY    74  64  71 S9        29.93S
NANTUCKET      LGT RAIN  63  61  93 SW13      29.97F VSB 1/2
PROVIDENCE     CLOUDY    72  67  84 S10       29.93F
HARTFORD       PTSUNNY   78  67  68 S15       29.89S
ALBANY         CLOUDY    81  65  58 S8        29.85S THUNDER
NEW YORK CITY  CLOUDY    78  73  84 S13       29.92S
$$

ANZ081-ANZ082-ANZ150-NHZ014-MEZ023>029-302300-
COASTAL MARINE OBSERVATIONS

STATION/POSITION TIME  TEMP    WIND        PRES    WAVE
                       AIR SEA DIR/SP/G            HT/PER
                 (UTC) (F)     (DEG/KT/KT) (MB)    (FT/S)
MOUNT DESERT ROC 2200   51     190/ 12/ 12 1011.8F
MATINICUS ROCK   2100   53     210/ 14/ 15 1012.0R
ISLE OF SHOALS   2100   63     180/ 18/ 19 1011.7F
JEFFREYS LEDGE   2108      55                N/A     2/ 6
CASHES LEDGE BUO 2150   54 52  200/ 10/ 10 1011.7F   2/ 5
GEORGES BANK BUO 2150   60 54              1016.5F   3/ 6
$$

.............KEY..............
   WCI - WIND CHILL
   TC  - TEMPERATURE IN CELSIUS
   VSB - VISIBILITY IN MILES
   HX  - HEAT INDEX
   FAIR- INDICATES FEW OR NO CLOUDS BELOW 12,000 FT, WITH NO
         SIGNIFICANT WEATHER AND/OR OBSTRUCTIONS TO VISIBILITY.






USA.gov is the U.S. government's official web portal to all federal, state and local government web resources and services.